[[{"header":{"parameterUnit":"m.s-1","parameterCategory":1,"la1":30.2991,"la2":30.254,"lo1":-89.0895,"lo2":-89.0444,"dy":0.0017,"dx":0.0017,"nx":28,"ny":28,"refTime":"2025-11-25T03:00:00:Z","depth":0,"parameterNumber":2,"parameterNumberName":"U-component_of_WINDS"},"data":[0,0,0,0,0,0,0,0,0,0,0,0,0,0,0,0,0,0,0,0,0,0,0,0,0,0,0,0,0,0,0,0,0,0,0,0,0,0,0,0,0,0,0,0,0,0,0,0,0,0,0,0,0,0,0,0,0,0,1.307,1.3071,0,1.309,1.309,1.3091,1.3097,1.3097,1.3096,1.3096,1.3116,1.3117,1.3117,0,0,0,0,0,0,0,0,0,0,0,0,0,1.3039,1.3039,1.307,1.3071,1.3071,1.309,1.309,1.3091,1.3097,1.3097,1.3096,1.3096,1.3116,1.3116,1.3117,0,0,0,0,0,0,0,0,0,0,0,0,0,1.3055,1.3039,1.307,1.3076,1.3077,1.309,1.309,1.3091,1.3097,1.3097,1.3096,1.3096,1.3115,1.3116,1.3117,1.3126,0,0,1.312,1.312,0,0,0,0,0,0,0,0,1.3054,1.3056,1.3075,1.3076,1.3077,1.3091,1.3086,1.3103,1.3097,1.3089,1.3096,1.3096,1.3108,1.3109,1.3113,1.3127,1.3128,1.312,1.3121,1.3121,1.3121,0,0,0,0,0,0,0,1.3053,1.3055,1.3078,1.3075,1.3076,1.3078,1.308,1.3089,1.3099,1.309,1.309,1.3093,1.3108,1.3112,1.3114,1.3128,1.312,1.3121,1.3122,1.3122,1.3152,1.3152,0,0,0,0,0,0,1.3051,1.3054,1.3078,1.3079,1.3065,1.3079,1.3081,1.3086,1.3099,1.3101,1.3093,1.3093,1.3111,1.3113,1.3114,1.3127,1.3121,1.3122,1.3122,1.3152,1.3152,1.3152,0,0,0,0,0,0,1.305,1.3053,1.3077,1.3067,1.307,1.308,1.3085,1.3087,1.3091,1.3101,1.3103,1.3095,1.3111,1.3113,1.3124,1.3127,1.3122,1.3123,1.3151,1.3152,1.3152,1.315,0,0,0,0,0,0,1.3049,1.3052,1.3055,1.3067,1.307,1.3085,1.3086,1.3087,1.3093,1.3093,1.3104,1.3106,1.3111,1.3122,1.3124,1.3128,1.3124,1.3151,1.3151,1.3152,1.315,1.315,1.3151,0,0,0,0,0,1.3048,1.3053,1.3055,1.3058,1.3074,1.3085,1.3087,1.3094,1.3093,1.3096,1.3103,1.3105,1.3127,1.3123,1.3126,1.313,1.3151,1.3151,1.3152,1.315,1.315,1.3151,0,0,0,0,0,0,1.3041,1.3055,1.3057,1.3067,1.3075,1.3086,1.3091,1.3094,1.3102,1.3102,1.3109,1.3112,1.3122,1.3127,1.3123,1.314,1.3139,1.314,1.3136,1.3137,1.3137,1.3136,1.3125,0,0,0,0,0,1.3041,1.3049,1.306,1.3068,1.3072,1.3081,1.3086,1.309,1.3099,1.3102,1.3109,1.3118,1.3127,1.3132,1.314,1.3151,1.3154,1.3155,1.3156,1.3156,1.3157,1.3165,1.3166,1.3154,1.3154,1.3154,0,0,1.304,1.3049,1.3053,1.3066,1.3073,1.3082,1.3083,1.3092,1.3098,1.3103,1.3114,1.312,1.313,1.3141,1.3146,1.3145,1.3161,1.3157,1.3157,1.3158,1.3165,1.3166,1.3167,1.3154,1.3154,1.3154,0,0,1.3043,1.305,1.3058,1.3065,1.3076,1.3082,1.3084,1.3096,1.31,1.3111,1.3116,1.3124,1.3138,1.3146,1.3151,1.316,1.3163,1.3163,1.3165,1.3172,1.3173,1.3174,1.3178,1.318,1.3164,1.3164,1.3164,0,1.3041,1.3054,1.3061,1.307,1.3076,1.3082,1.3091,1.3097,1.311,1.3115,1.3114,1.3134,1.3141,1.3155,1.3157,1.3161,1.3164,1.3161,1.3173,1.3174,1.3175,1.3179,1.318,1.3164,1.3164,1.3164,1.3164,0,1.3051,1.306,1.3065,1.3078,1.3085,1.3094,1.3103,1.3109,1.3114,1.312,1.3132,1.3141,1.3153,1.3156,1.316,1.3171,1.317,1.3171,1.317,1.3176,1.318,1.3181,1.3164,1.3164,1.3164,1.3164,0,0,1.3049,1.3068,1.307,1.3077,1.309,1.3098,1.3107,1.3119,1.3125,1.3134,1.3143,1.3156,1.3158,1.3164,1.3169,1.3175,1.3184,1.3176,1.3176,1.3178,1.3198,1.3197,1.3199,1.3186,1.3186,1.3186,1.3197,0,1.3054,1.3071,1.3079,1.3093,1.3102,1.3109,1.3118,1.3127,1.3134,1.3144,1.3151,1.3161,1.3162,1.3166,1.3173,1.3181,1.3188,1.318,1.3194,1.3195,1.3192,1.3201,1.32,1.321,1.3199,1.3199,1.3199,0,1.3062,1.3073,1.3088,1.3102,1.3106,1.3114,1.3126,1.3135,1.3146,1.3151,1.316,1.3165,1.3176,1.3175,1.3191,1.3186,1.3192,1.3197,1.3198,1.3199,1.3197,1.3203,1.3213,1.3215,1.3202,1.3201,1.3201,0,1.306,1.3078,1.309,1.3096,1.3112,1.3118,1.3125,1.3137,1.3144,1.3155,1.316,1.3172,1.3179,1.3188,1.3197,1.3195,1.3213,1.3212,1.3218,1.3218,1.3221,1.322,1.3232,1.3225,1.3225,1.3224,1.3224,0,1.3065,1.3074,1.3089,1.3097,1.3108,1.3117,1.3128,1.3136,1.3147,1.3156,1.3163,1.3172,1.3183,1.3193,1.32,1.3213,1.3216,1.3221,1.3222,1.322,1.322,1.3224,1.3224,1.3225,1.3225,1.3225,1.3225,0,1.3064,1.3075,1.3088,1.3104,1.3108,1.3116,1.3129,1.3137,1.3145,1.3157,1.3161,1.3173,1.3186,1.3196,1.3213,1.3218,1.3232,1.3233,1.3228,1.3229,1.3235,1.3234,1.325,1.3253,1.3243,1.3243,1.3243,0,1.3067,1.3074,1.3091,1.3099,1.3106,1.3117,1.3125,1.3136,1.3144,1.3159,1.3165,1.3179,1.319,1.3211,1.3222,1.3235,1.3237,1.3242,1.3239,1.3238,1.3238,1.3238,1.3239,1.3242,1.3242,1.3242,1.3242,0,1.3071,1.3076,1.3087,1.3101,1.3111,1.3122,1.3133,1.3139,1.3152,1.3161,1.3174,1.3183,1.3201,1.3215,1.323,1.3238,1.3243,1.3244,1.3246,1.3243,1.324,1.3243,1.3229,1.3243,1.3243,1.3243,1.3243,1.3243,1.3072,1.308,1.3093,1.3106,1.3116,1.3127,1.3136,1.3146,1.3158,1.3174,1.3179,1.3194,1.3208,1.3228,1.3237,1.3248,1.3249,1.3252,1.3252,1.3253,1.3253,1.3239,1.3251,1.3251,1.3251,1.3251,1.3251,0,1.3077,1.3087,1.3098,1.3115,1.3125,1.313,1.3143,1.3152,1.3165,1.3177,1.3189,1.3206,1.322,1.3233,1.3248,1.3255,1.3258,1.3259,1.3258,1.326,1.3252,1.3249,1.3256,1.3256,1.3256,1.3256,1.3256,1.3256,1.308,1.3094,1.3101,1.3121,1.3131,1.3145,1.3153,1.3163,1.3174,1.3192,1.3204,1.3213,1.3226,1.3243,1.3256,1.326,1.3265,1.3266,1.327,1.3261,1.3261,1.326,1.3257,1.3267,1.3267,1.3278,1.3278,1.3278]},{"header":{"parameterUnit":"m.s-1","parameterCategory":1,"la1":30.2991,"la2":30.254,"lo1":-89.0895,"lo2":-89.0444,"dy":0.0017,"dx":0.0017,"nx":28,"ny":28,"refTime":"2025-11-25T03:00:00:Z","depth":0,"parameterNumber":3,"parameterNumberName":"V-component_of_WINDS"},"data":[0,0,0,0,0,0,0,0,0,0,0,0,0,0,0,0,0,0,0,0,0,0,0,0,0,0,0,0,0,0,0,0,0,0,0,0,0,0,0,0,0,0,0,0,0,0,0,0,0,0,0,0,0,0,0,0,0,0,-6.7629,-6.763,0,-6.7689,-6.7689,-6.769,-6.7665,-6.7664,-6.7662,-6.7661,-6.7716,-6.7718,-6.7721,0,0,0,0,0,0,0,0,0,0,0,0,0,-6.749,-6.7493,-6.7629,-6.763,-6.7631,-6.7688,-6.7689,-6.769,-6.7665,-6.7664,-6.7662,-6.766,-6.7715,-6.7718,-6.7721,0,0,0,0,0,0,0,0,0,0,0,0,0,-6.755,-6.7493,-6.7629,-6.7625,-6.7626,-6.7688,-6.7689,-6.769,-6.7666,-6.7664,-6.7662,-6.766,-6.7714,-6.7718,-6.7722,-6.7789,0,0,-6.7734,-6.7736,0,0,0,0,0,0,0,0,-6.7546,-6.7555,-6.7625,-6.7626,-6.7626,-6.7667,-6.766,-6.7723,-6.7666,-6.765,-6.7661,-6.7659,-6.7701,-6.7706,-6.7721,-6.7792,-6.7794,-6.7735,-6.7737,-6.7739,-6.774,0,0,0,0,0,0,0,-6.7542,-6.7552,-6.7652,-6.7626,-6.7627,-6.7619,-6.7626,-6.7672,-6.7686,-6.7652,-6.765,-6.7658,-6.7701,-6.7717,-6.7722,-6.7795,-6.7734,-6.7738,-6.7741,-6.7742,-6.7926,-6.7928,0,0,0,0,0,0,-6.7539,-6.7549,-6.765,-6.7654,-6.7581,-6.7624,-6.7631,-6.7656,-6.7686,-6.7689,-6.7659,-6.7656,-6.7711,-6.7718,-6.7724,-6.7807,-6.7739,-6.7743,-6.7745,-6.7923,-6.7926,-6.7929,0,0,0,0,0,0,-6.7536,-6.7548,-6.7648,-6.7601,-6.7613,-6.7628,-6.7657,-6.7658,-6.7675,-6.7692,-6.7694,-6.7674,-6.771,-6.7718,-6.7774,-6.7808,-6.7745,-6.7748,-6.792,-6.7924,-6.7927,-6.7971,0,0,0,0,0,0,-6.7532,-6.7547,-6.7574,-6.7602,-6.7616,-6.7698,-6.7659,-6.7661,-6.7683,-6.768,-6.7706,-6.7709,-6.7709,-6.7768,-6.7778,-6.7813,-6.7752,-6.7917,-6.7922,-6.7926,-6.7967,-6.7976,-6.7984,0,0,0,0,0,-6.7527,-6.7582,-6.7575,-6.7588,-6.765,-6.77,-6.7708,-6.7709,-6.7686,-6.7713,-6.7724,-6.7708,-6.7803,-6.7774,-6.7785,-6.7821,-6.7915,-6.7921,-6.7926,-6.7963,-6.7974,-6.7983,0,0,0,0,0,0,-6.7554,-6.7585,-6.7578,-6.7644,-6.767,-6.7696,-6.7729,-6.7721,-6.7752,-6.7747,-6.7745,-6.7751,-6.7809,-6.7821,-6.7788,-6.7889,-6.7855,-6.7863,-6.788,-6.789,-6.7899,-6.7894,-6.7755,0,0,0,0,0,-6.7568,-6.7608,-6.7633,-6.7688,-6.7702,-6.7714,-6.7736,-6.7735,-6.7761,-6.7771,-6.7786,-6.781,-6.7845,-6.7868,-6.7902,-6.7969,-6.7974,-6.7999,-6.8008,-6.8014,-6.8021,-6.8059,-6.807,-6.7946,-6.7946,-6.7946,0,0,-6.7596,-6.7618,-6.7643,-6.7694,-6.7714,-6.7755,-6.7723,-6.7766,-6.7796,-6.7776,-6.7831,-6.7843,-6.787,-6.7932,-6.796,-6.7943,-6.8057,-6.8021,-6.8027,-6.803,-6.8066,-6.8077,-6.8088,-6.795,-6.7949,-6.7949,0,0,-6.7669,-6.769,-6.774,-6.7762,-6.7794,-6.7802,-6.7814,-6.7842,-6.785,-6.7906,-6.7892,-6.7927,-6.7988,-6.8008,-6.8026,-6.8111,-6.8098,-6.8122,-6.8165,-6.8202,-6.8212,-6.8221,-6.8251,-6.8262,-6.8128,-6.8128,-6.8128,0,-6.7699,-6.7762,-6.7765,-6.7812,-6.7835,-6.7822,-6.7873,-6.7893,-6.7933,-6.7948,-6.793,-6.8008,-6.8025,-6.8093,-6.8114,-6.8129,-6.8142,-6.8118,-6.8211,-6.8219,-6.8227,-6.8257,-6.8268,-6.8131,-6.8131,-6.813,-6.813,0,-6.7799,-6.7842,-6.7878,-6.7922,-6.7949,-6.7996,-6.8006,-6.8033,-6.8031,-6.804,-6.8097,-6.8118,-6.8156,-6.8172,-6.8169,-6.824,-6.8229,-6.8211,-6.8176,-6.8242,-6.827,-6.8281,-6.8135,-6.8134,-6.8133,-6.8133,0,0,-6.7887,-6.7935,-6.7948,-6.7969,-6.8005,-6.8038,-6.8085,-6.8126,-6.8149,-6.8178,-6.8217,-6.8271,-6.8255,-6.8276,-6.8275,-6.8307,-6.8374,-6.8285,-6.8286,-6.8301,-6.8455,-6.8469,-6.8482,-6.8366,-6.8369,-6.837,-6.8453,0,-6.7963,-6.805,-6.8056,-6.8132,-6.8173,-6.8164,-6.8205,-6.8231,-6.8242,-6.8277,-6.8288,-6.8327,-6.8303,-6.8316,-6.8347,-6.836,-6.8405,-6.8354,-6.8402,-6.8404,-6.8396,-6.8497,-6.8511,-6.8588,-6.8464,-6.8466,-6.8467,0,-6.8063,-6.8099,-6.8181,-6.8215,-6.8232,-6.8269,-6.8308,-6.8342,-6.8371,-6.8377,-6.8403,-6.8398,-6.8446,-6.8411,-6.8477,-6.8442,-6.8462,-6.8472,-6.8475,-6.8479,-6.8439,-6.8504,-6.8613,-6.8624,-6.8484,-6.8483,-6.8482,0,-6.8121,-6.8189,-6.8248,-6.8266,-6.8305,-6.8332,-6.835,-6.8377,-6.8402,-6.8436,-6.8452,-6.8489,-6.851,-6.8538,-6.8544,-6.8518,-6.861,-6.8575,-6.8616,-6.8616,-6.8635,-6.8634,-6.8749,-6.8648,-6.8648,-6.8648,-6.8648,0,-6.8205,-6.8256,-6.8275,-6.8311,-6.8368,-6.8375,-6.843,-6.8445,-6.8471,-6.8509,-6.8502,-6.8537,-6.8542,-6.8579,-6.8583,-6.8638,-6.8647,-6.8652,-6.8653,-6.8653,-6.8652,-6.8666,-6.8661,-6.8651,-6.865,-6.865,-6.8649,0,-6.8279,-6.8294,-6.8357,-6.8391,-6.8401,-6.8442,-6.847,-6.8504,-6.8516,-6.8564,-6.8576,-6.8593,-6.8636,-6.8645,-6.8694,-6.8697,-6.8763,-6.8757,-6.8754,-6.8753,-6.8793,-6.879,-6.8921,-6.8939,-6.8827,-6.8828,-6.8829,0,-6.8331,-6.8371,-6.8411,-6.8438,-6.8457,-6.8499,-6.8526,-6.8534,-6.8562,-6.86,-6.863,-6.8673,-6.8708,-6.8777,-6.8792,-6.8831,-6.8827,-6.887,-6.8832,-6.8832,-6.8828,-6.8826,-6.883,-6.8877,-6.8879,-6.888,-6.888,0,-6.8424,-6.8431,-6.847,-6.8514,-6.8547,-6.8581,-6.8612,-6.8634,-6.8646,-6.8678,-6.8724,-6.8751,-6.8804,-6.8847,-6.8886,-6.8902,-6.8893,-6.8893,-6.8904,-6.8905,-6.8901,-6.8905,-6.8774,-6.8889,-6.8888,-6.8888,-6.8887,-6.8887,-6.8489,-6.8525,-6.856,-6.8605,-6.8631,-6.8662,-6.8697,-6.8714,-6.8753,-6.8799,-6.8801,-6.8851,-6.8881,-6.8934,-6.8952,-6.8991,-6.8977,-6.8993,-6.8997,-6.9001,-6.9006,-6.8896,-6.8998,-6.8997,-6.8997,-6.8997,-6.8997,0,-6.8582,-6.8605,-6.8647,-6.8694,-6.873,-6.8722,-6.8758,-6.8788,-6.8833,-6.8863,-6.8899,-6.8952,-6.8994,-6.9015,-6.9056,-6.9083,-6.908,-6.9093,-6.9091,-6.9096,-6.9015,-6.9002,-6.9095,-6.9095,-6.9095,-6.9095,-6.9095,-6.9095,-6.8635,-6.8696,-6.8707,-6.878,-6.8802,-6.8853,-6.8875,-6.8903,-6.8928,-6.8989,-6.9025,-6.9039,-6.9065,-6.9109,-6.9148,-6.9152,-6.9168,-6.9184,-6.9187,-6.9111,-6.9101,-6.9091,-6.9079,-6.9187,-6.9187,-6.9264,-6.9264,-6.9265]}]]